CKS251 PAFA-KOAK

Flight info

Callsign CKS251
Flight time 3h 57m
Altitude 33000
Route RDFLG5 RDFLG Q902 PRYCE DCT TOU Q801 HARPR Q5 HUPTU DCT SPAMY WNDSR2
Aircraft B77L/H-SDE1E2E3FGHIJ2J3J4J5M1RWXY/LB1D1

Departure

Time 2026-04-29 01:02
Airport Fairbanks International Airport (PAFA)

Arrival

Time 2026-04-29 04:59
Airport San Francisco Bay Oakland International Airport (KOAK)
Time Latitude Longitude Altitude Speed Heading
2026-04-29 00:29 64.80323 -147.89278 448 ft 0 kts 308°
2026-04-29 00:53 64.80325 -147.89282 448 ft 2 kts 308°
2026-04-29 00:54 64.80351 -147.89348 448 ft 7 kts 329°
2026-04-29 00:54 64.80415 -147.89314 448 ft 12 kts 33°
2026-04-29 00:54 64.80449 -147.89125 448 ft 14 kts 116°
2026-04-29 00:54 64.80393 -147.88942 448 ft 13 kts 127°
2026-04-29 00:55 64.80369 -147.88748 448 ft 13 kts 65°
2026-04-29 00:55 64.80437 -147.88590 448 ft 14 kts 37°
2026-04-29 00:55 64.80523 -147.88440 448 ft 16 kts 37°
2026-04-29 00:55 64.80617 -147.88266 448 ft 18 kts 38°
2026-04-29 00:56 64.80727 -147.88063 448 ft 21 kts 38°
2026-04-29 00:56 64.80850 -147.87840 448 ft 22 kts 37°
2026-04-29 00:56 64.80965 -147.87630 448 ft 19 kts 38°
2026-04-29 00:56 64.81068 -147.87439 448 ft 18 kts 38°
2026-04-29 00:57 64.81162 -147.87265 448 ft 16 kts 38°
2026-04-29 00:57 64.81253 -147.87103 447 ft 16 kts 35°
2026-04-29 00:57 64.81345 -147.86934 447 ft 17 kts 39°
2026-04-29 00:57 64.81440 -147.86757 447 ft 17 kts 38°
2026-04-29 00:58 64.81536 -147.86580 447 ft 17 kts 38°
2026-04-29 00:58 64.81632 -147.86403 447 ft 17 kts 38°
2026-04-29 00:58 64.81731 -147.86223 447 ft 18 kts 38°
2026-04-29 00:58 64.81836 -147.86029 447 ft 19 kts 38°
2026-04-29 00:59 64.81949 -147.85823 447 ft 21 kts 38°
2026-04-29 00:59 64.82069 -147.85602 447 ft 22 kts 38°
2026-04-29 00:59 64.82199 -147.85361 447 ft 24 kts 37°
2026-04-29 00:59 64.82337 -147.85109 447 ft 25 kts 39°
2026-04-29 01:00 64.82474 -147.84853 447 ft 24 kts 38°
2026-04-29 01:00 64.82600 -147.84622 447 ft 21 kts 37°
2026-04-29 01:00 64.82713 -147.84421 447 ft 19 kts 37°
2026-04-29 01:00 64.82807 -147.84244 447 ft 14 kts 43°
2026-04-29 01:01 64.82828 -147.84045 447 ft 13 kts 117°
2026-04-29 01:01 64.82752 -147.84021 447 ft 12 kts 210°
2026-04-29 01:01 64.82644 -147.84215 447 ft 41 kts 218°
2026-04-29 01:01 64.82223 -147.84981 447 ft 111 kts 219°
2026-04-29 01:02 64.81446 -147.86433 450 ft 172 kts 218°
2026-04-29 01:02 64.80479 -147.88205 1083 ft 179 kts 216°
2026-04-29 01:02 64.79457 -147.89729 1887 ft 183 kts 200°
2026-04-29 01:02 64.78146 -147.90204 2293 ft 200 kts 178°
2026-04-29 01:03 64.76762 -147.89310 2780 ft 215 kts 154°
2026-04-29 01:03 64.75594 -147.86990 3199 ft 234 kts 131°
2026-04-29 01:03 64.74601 -147.83873 3757 ft 244 kts 127°
2026-04-29 01:03 64.73615 -147.80569 4398 ft 254 kts 128°
2026-04-29 01:04 64.72566 -147.77165 4963 ft 267 kts 128°
2026-04-29 01:04 64.71490 -147.73657 5818 ft 268 kts 129°
2026-04-29 01:04 64.70412 -147.70148 6677 ft 269 kts 129°
2026-04-29 01:04 64.69308 -147.66585 7395 ft 274 kts 129°
2026-04-29 01:05 64.68184 -147.63001 8166 ft 277 kts 129°
2026-04-29 01:05 64.67100 -147.59369 9007 ft 277 kts 124°
2026-04-29 01:05 64.66135 -147.55479 9765 ft 280 kts 123°
2026-04-29 01:05 64.65155 -147.51543 10341 ft 288 kts 123°
2026-04-29 01:06 64.64098 -147.47415 10653 ft 307 kts 124°
2026-04-29 01:06 64.62963 -147.43033 10906 ft 327 kts 124°
2026-04-29 01:06 64.61748 -147.38362 11187 ft 347 kts 123°
2026-04-29 01:06 64.60472 -147.33469 11481 ft 366 kts 124°
2026-04-29 01:07 64.59119 -147.28287 11969 ft 379 kts 124°
2026-04-29 01:07 64.57742 -147.23019 12869 ft 382 kts 124°
2026-04-29 01:07 64.56385 -147.17844 13819 ft 383 kts 124°
2026-04-29 01:07 64.54995 -147.12556 14692 ft 387 kts 124°
2026-04-29 01:08 64.53581 -147.07194 15586 ft 391 kts 124°
2026-04-29 01:08 64.52169 -147.01849 16444 ft 396 kts 124°
2026-04-29 01:08 64.50724 -146.96396 17272 ft 401 kts 124°
2026-04-29 01:08 64.49271 -146.90921 18093 ft 405 kts 124°
2026-04-29 01:09 64.47790 -146.85361 18896 ft 410 kts 124°
2026-04-29 01:09 64.46283 -146.79713 19723 ft 413 kts 124°
2026-04-29 01:09 64.44792 -146.74141 20533 ft 416 kts 124°
2026-04-29 01:09 64.43256 -146.68414 21311 ft 419 kts 124°
2026-04-29 01:10 64.41715 -146.62682 22063 ft 423 kts 124°
2026-04-29 01:10 64.40175 -146.56973 22796 ft 426 kts 123°
2026-04-29 01:10 64.38599 -146.51141 23487 ft 430 kts 123°
2026-04-29 01:10 64.37007 -146.45270 24135 ft 434 kts 123°
2026-04-29 01:11 64.35419 -146.39427 24857 ft 436 kts 123°
2026-04-29 01:11 64.33808 -146.33513 25418 ft 440 kts 124°
2026-04-29 01:11 64.32162 -146.27489 25915 ft 445 kts 124°
2026-04-29 01:11 64.30505 -146.21443 26433 ft 449 kts 125°
2026-04-29 01:12 64.28799 -146.15334 26913 ft 453 kts 126°
2026-04-29 01:12 64.27047 -146.09261 27354 ft 458 kts 126°
2026-04-29 01:12 64.25269 -146.03119 27785 ft 463 kts 126°
2026-04-29 01:12 64.23460 -145.96889 28196 ft 467 kts 126°
2026-04-29 01:13 64.21628 -145.90582 28644 ft 471 kts 126°
2026-04-29 01:13 64.19784 -145.84253 29086 ft 474 kts 127°
2026-04-29 01:13 64.17927 -145.77892 29620 ft 475 kts 127°
2026-04-29 01:13 64.16082 -145.71588 30174 ft 475 kts 127°
2026-04-29 01:14 64.14236 -145.65299 30737 ft 473 kts 127°
2026-04-29 01:14 64.12386 -145.59009 31206 ft 474 kts 127°
2026-04-29 01:14 64.10530 -145.52722 31637 ft 474 kts 127°
2026-04-29 01:14 64.08688 -145.46495 32096 ft 473 kts 127°
2026-04-29 01:15 64.06836 -145.40251 32564 ft 471 kts 127°
2026-04-29 01:15 64.05009 -145.34111 32781 ft 473 kts 128°
2026-04-29 01:15 64.03126 -145.27799 32827 ft 471 kts 128°
2026-04-29 01:16 63.99453 -145.15536 32834 ft 469 kts 128°
2026-04-29 01:16 63.95752 -145.03250 32838 ft 470 kts 128°
2026-04-29 01:17 63.92036 -144.90981 32866 ft 473 kts 128°
2026-04-29 01:17 63.88294 -144.78690 32875 ft 473 kts 128°
2026-04-29 01:18 63.84550 -144.66457 32887 ft 470 kts 128°
2026-04-29 01:18 63.78936 -144.48244 32891 ft 471 kts 128°
2026-04-29 01:19 63.75179 -144.36136 32885 ft 471 kts 128°
2026-04-29 01:19 63.71423 -144.24094 32889 ft 468 kts 129°
2026-04-29 01:20 63.67645 -144.12047 32890 ft 470 kts 129°
2026-04-29 01:20 63.63848 -144.00003 32887 ft 469 kts 129°
2026-04-29 01:21 63.60075 -143.88100 32897 ft 472 kts 129°
2026-04-29 01:21 63.56253 -143.76106 32874 ft 472 kts 129°
2026-04-29 01:22 63.52435 -143.64188 32880 ft 471 kts 129°
2026-04-29 01:22 63.48604 -143.52290 32877 ft 471 kts 129°
2026-04-29 01:23 63.44747 -143.40375 32872 ft 470 kts 129°
2026-04-29 01:23 63.40923 -143.28624 32880 ft 469 kts 130°
2026-04-29 01:24 63.37068 -143.16841 32890 ft 471 kts 130°
2026-04-29 01:24 63.33215 -143.05121 32894 ft 471 kts 130°
2026-04-29 01:25 63.29352 -142.93434 32896 ft 470 kts 130°
2026-04-29 01:25 63.25460 -142.81718 32892 ft 470 kts 130°
2026-04-29 01:26 63.21565 -142.70058 32882 ft 471 kts 130°
2026-04-29 01:26 63.17654 -142.58406 32883 ft 473 kts 130°
2026-04-29 01:27 63.13715 -142.46730 32876 ft 471 kts 130°
2026-04-29 01:27 63.09770 -142.35100 32879 ft 473 kts 130°
2026-04-29 01:28 63.05821 -142.23514 32876 ft 473 kts 131°
2026-04-29 01:28 63.01885 -142.12025 32881 ft 472 kts 131°
2026-04-29 01:29 62.97927 -142.00531 32890 ft 473 kts 131°
2026-04-29 01:29 62.93669 -141.89424 32893 ft 468 kts 141°
2026-04-29 01:30 62.88880 -141.79921 32899 ft 468 kts 142°
2026-04-29 01:30 62.84025 -141.70442 32897 ft 468 kts 142°
2026-04-29 01:31 62.79155 -141.60991 32892 ft 467 kts 142°
2026-04-29 01:31 62.74280 -141.51588 32894 ft 469 kts 142°
2026-04-29 01:32 62.69400 -141.42221 32896 ft 468 kts 142°
2026-04-29 01:32 62.64361 -141.33261 32884 ft 462 kts 152°
2026-04-29 01:33 62.58586 -141.27803 32886 ft 455 kts 166°
2026-04-29 01:33 62.52488 -141.23947 32872 ft 454 kts 169°
2026-04-29 01:34 62.46326 -141.22676 32867 ft 447 kts 185°
2026-04-29 01:34 62.40157 -141.23781 32864 ft 447 kts 187°
2026-04-29 01:35 62.33955 -141.24947 32859 ft 447 kts 187°
2026-04-29 01:35 62.27728 -141.26103 32854 ft 446 kts 187°
2026-04-29 01:36 62.21552 -141.27222 32855 ft 448 kts 187°
2026-04-29 01:36 62.15349 -141.28343 32857 ft 448 kts 187°
2026-04-29 01:37 62.09179 -141.29410 32860 ft 446 kts 187°
2026-04-29 01:37 62.02967 -141.30456 32862 ft 447 kts 187°
2026-04-29 01:38 61.96825 -141.31517 32863 ft 449 kts 187°
2026-04-29 01:38 61.90634 -141.32443 32872 ft 446 kts 183°
2026-04-29 01:39 61.84504 -141.30797 32904 ft 456 kts 168°
2026-04-29 01:39 61.78680 -141.25461 32909 ft 465 kts 153°
2026-04-29 01:40 61.73612 -141.16872 32933 ft 473 kts 143°
2026-04-29 01:40 61.68739 -141.07524 32909 ft 472 kts 143°
2026-04-29 01:41 61.63880 -140.98242 32876 ft 475 kts 143°
2026-04-29 01:41 61.59013 -140.88979 32858 ft 471 kts 143°
2026-04-29 01:42 61.54132 -140.79739 32848 ft 478 kts 143°
2026-04-29 01:42 61.49256 -140.70541 32842 ft 472 kts 143°
2026-04-29 01:43 61.44341 -140.61317 32863 ft 479 kts 143°
2026-04-29 01:43 61.39440 -140.52155 32859 ft 475 kts 143°
2026-04-29 01:44 61.34495 -140.42958 32843 ft 479 kts 143°
2026-04-29 01:44 61.29578 -140.33846 32842 ft 478 kts 144°
2026-04-29 01:45 61.24647 -140.24748 32862 ft 479 kts 144°
2026-04-29 01:45 61.19649 -140.15572 32905 ft 479 kts 144°
2026-04-29 01:46 61.14698 -140.06519 32866 ft 480 kts 144°
2026-04-29 01:46 61.09683 -139.97388 32773 ft 481 kts 144°
2026-04-29 01:47 61.04656 -139.88280 32754 ft 481 kts 144°
2026-04-29 01:47 60.99636 -139.79222 32762 ft 485 kts 144°
2026-04-29 01:48 60.94592 -139.70157 32832 ft 483 kts 144°
2026-04-29 01:48 60.89553 -139.61144 32895 ft 483 kts 144°
2026-04-29 01:49 60.84479 -139.52106 32888 ft 483 kts 144°
2026-04-29 01:49 60.79430 -139.43147 32886 ft 477 kts 144°
2026-04-29 01:50 60.74359 -139.34201 32940 ft 483 kts 145°
2026-04-29 01:50 60.69269 -139.25249 32919 ft 480 kts 145°
2026-04-29 01:51 60.64258 -139.16473 32957 ft 480 kts 146°
2026-04-29 01:51 60.59208 -139.07672 32919 ft 479 kts 146°
2026-04-29 01:52 60.54092 -138.98795 32866 ft 478 kts 146°
2026-04-29 01:52 60.49088 -138.90143 32866 ft 480 kts 146°
2026-04-29 01:53 60.44014 -138.81410 32887 ft 476 kts 146°
2026-04-29 01:53 60.38956 -138.72745 32913 ft 478 kts 146°
2026-04-29 01:54 60.33867 -138.64061 32967 ft 478 kts 146°
2026-04-29 01:54 60.28791 -138.55438 32974 ft 481 kts 146°
2026-04-29 01:55 60.23673 -138.46780 32980 ft 484 kts 146°
2026-04-29 01:55 60.18565 -138.38170 33001 ft 481 kts 146°
2026-04-29 01:56 60.13439 -138.29568 32984 ft 479 kts 147°
2026-04-29 01:56 60.08320 -138.21019 33014 ft 483 kts 147°
2026-04-29 01:57 60.03152 -138.12419 32995 ft 482 kts 147°
2026-04-29 01:57 59.98049 -138.03964 33044 ft 483 kts 147°
2026-04-29 01:58 59.92870 -137.95416 33102 ft 480 kts 147°
2026-04-29 01:58 59.87717 -137.86952 33116 ft 485 kts 147°
2026-04-29 01:59 59.82547 -137.78493 33128 ft 484 kts 147°
2026-04-29 01:59 59.77369 -137.70052 33087 ft 482 kts 147°
2026-04-29 02:00 59.72173 -137.61623 33066 ft 484 kts 147°
2026-04-29 02:00 59.66972 -137.53215 33080 ft 484 kts 147°
2026-04-29 02:01 59.61754 -137.44817 33094 ft 483 kts 147°
2026-04-29 02:01 59.56543 -137.36465 33086 ft 484 kts 147°
2026-04-29 02:02 59.51373 -137.28210 33071 ft 480 kts 148°
2026-04-29 02:02 59.46132 -137.19881 33049 ft 484 kts 148°
2026-04-29 02:03 59.40906 -137.11607 33087 ft 485 kts 149°
2026-04-29 02:03 59.35687 -137.03377 33095 ft 484 kts 148°
2026-04-29 02:04 59.30449 -136.95152 33098 ft 484 kts 149°
2026-04-29 02:04 59.25170 -136.86896 33083 ft 485 kts 149°
2026-04-29 02:05 59.19924 -136.78726 33087 ft 486 kts 149°
2026-04-29 02:05 59.14675 -136.70583 33113 ft 485 kts 149°
2026-04-29 02:06 59.09365 -136.62381 33130 ft 487 kts 149°
2026-04-29 02:06 59.04076 -136.54240 33179 ft 486 kts 149°
2026-04-29 02:07 58.98754 -136.46085 33236 ft 489 kts 149°
2026-04-29 02:07 58.93438 -136.37972 33241 ft 490 kts 149°
2026-04-29 02:08 58.88086 -136.29834 33242 ft 490 kts 149°
2026-04-29 02:08 58.82722 -136.21713 33254 ft 491 kts 150°
2026-04-29 02:09 58.77317 -136.13567 33251 ft 494 kts 150°
2026-04-29 02:09 58.71937 -136.05482 33244 ft 491 kts 150°
2026-04-29 02:10 58.66517 -135.97378 33239 ft 496 kts 149°
2026-04-29 02:10 58.61109 -135.89319 33242 ft 495 kts 149°
2026-04-29 02:11 58.55684 -135.81271 33250 ft 495 kts 149°
2026-04-29 02:11 58.50202 -135.73167 33259 ft 497 kts 149°
2026-04-29 02:12 58.44771 -135.65175 33270 ft 500 kts 149°
2026-04-29 02:12 58.39274 -135.57114 33268 ft 497 kts 150°
2026-04-29 02:13 58.33757 -135.49060 33270 ft 501 kts 149°
2026-04-29 02:13 58.28220 -135.41007 33261 ft 502 kts 149°
2026-04-29 02:14 58.22639 -135.32924 33251 ft 506 kts 150°
2026-04-29 02:14 58.17068 -135.24986 33248 ft 501 kts 152°
2026-04-29 02:15 58.11402 -135.17339 33243 ft 502 kts 152°
2026-04-29 02:15 58.05689 -135.09683 33243 ft 505 kts 152°
2026-04-29 02:16 58.00042 -135.02142 33240 ft 502 kts 153°
2026-04-29 02:16 57.94313 -134.94533 33239 ft 507 kts 152°
2026-04-29 02:17 57.88600 -134.86966 33248 ft 505 kts 152°
2026-04-29 02:17 57.82838 -134.79370 33252 ft 508 kts 152°
2026-04-29 02:18 57.77056 -134.71777 33262 ft 508 kts 152°
2026-04-29 02:18 57.71273 -134.64214 33261 ft 510 kts 152°
2026-04-29 02:19 57.65458 -134.56636 33261 ft 509 kts 152°
2026-04-29 02:19 57.59666 -134.49121 33259 ft 508 kts 152°
2026-04-29 02:20 57.53852 -134.41609 33263 ft 510 kts 152°
2026-04-29 02:20 57.47992 -134.34067 33262 ft 511 kts 152°
2026-04-29 02:21 57.42103 -134.26517 33251 ft 514 kts 152°
2026-04-29 02:21 57.36241 -134.19026 33250 ft 511 kts 152°
2026-04-29 02:22 57.30352 -134.11540 33256 ft 516 kts 152°
2026-04-29 02:22 57.24475 -134.04091 33266 ft 517 kts 152°
2026-04-29 02:23 57.18523 -133.96580 33274 ft 515 kts 152°
2026-04-29 02:23 57.12619 -133.89159 33275 ft 516 kts 152°
2026-04-29 02:24 57.06662 -133.81702 33280 ft 516 kts 152°
2026-04-29 02:25 56.97773 -133.70625 33271 ft 518 kts 152°
2026-04-29 02:25 56.91797 -133.63214 33266 ft 515 kts 151°
2026-04-29 02:26 56.85867 -133.55891 33252 ft 517 kts 152°
2026-04-29 02:26 56.79886 -133.48534 33252 ft 518 kts 152°
2026-04-29 02:27 56.73946 -133.41255 33264 ft 517 kts 152°
2026-04-29 02:27 56.67989 -133.33986 33273 ft 519 kts 152°
2026-04-29 02:28 56.62062 -133.26778 33278 ft 517 kts 152°
2026-04-29 02:28 56.56070 -133.19521 33286 ft 518 kts 152°
2026-04-29 02:29 56.50054 -133.12260 33291 ft 518 kts 152°
2026-04-29 02:29 56.44059 -133.05174 33288 ft 519 kts 154°
2026-04-29 02:30 56.37932 -132.98399 33285 ft 516 kts 154°
2026-04-29 02:30 56.31791 -132.91632 33287 ft 519 kts 154°
2026-04-29 02:31 56.25687 -132.84911 33290 ft 518 kts 154°
2026-04-29 02:31 56.19464 -132.78082 33299 ft 520 kts 154°
2026-04-29 02:32 56.13301 -132.71336 33290 ft 520 kts 154°
2026-04-29 02:32 56.07119 -132.64595 33292 ft 519 kts 154°
2026-04-29 02:33 56.00929 -132.57871 33296 ft 522 kts 154°
2026-04-29 02:33 55.94746 -132.51175 33299 ft 521 kts 154°
2026-04-29 02:34 55.88616 -132.44563 33282 ft 522 kts 153°
2026-04-29 02:34 55.82408 -132.37892 33283 ft 521 kts 154°
2026-04-29 02:35 55.76242 -132.31291 33275 ft 522 kts 154°
2026-04-29 02:35 55.70068 -132.24704 33284 ft 522 kts 154°
2026-04-29 02:36 55.63839 -132.18083 33285 ft 519 kts 154°
2026-04-29 02:36 55.57600 -132.11484 33853 ft 527 kts 154°
2026-04-29 02:36 55.54477 -132.08185 34612 ft 522 kts 155°
2026-04-29 02:37 55.51409 -132.04952 35156 ft 520 kts 155°
2026-04-29 02:37 55.48302 -132.01683 35272 ft 518 kts 155°
2026-04-29 02:37 55.45252 -131.98480 35285 ft 515 kts 155°
2026-04-29 02:38 55.39115 -131.92059 35294 ft 518 kts 155°
2026-04-29 02:38 55.32943 -131.85622 35293 ft 517 kts 155°
2026-04-29 02:39 55.26767 -131.79207 35305 ft 518 kts 155°
2026-04-29 02:39 55.20536 -131.72757 35304 ft 521 kts 155°
2026-04-29 02:40 55.14326 -131.66353 35304 ft 522 kts 155°
2026-04-29 02:40 55.08093 -131.59946 35299 ft 522 kts 155°
2026-04-29 02:41 55.01859 -131.53397 35296 ft 525 kts 154°
2026-04-29 02:41 54.95708 -131.46732 35285 ft 525 kts 154°
2026-04-29 02:42 54.89506 -131.40051 35282 ft 527 kts 154°
2026-04-29 02:42 54.83275 -131.33371 35273 ft 528 kts 154°
2026-04-29 02:43 54.77043 -131.26715 35286 ft 524 kts 155°
2026-04-29 02:43 54.70815 -131.20094 35269 ft 527 kts 154°
2026-04-29 02:44 54.64914 -131.12520 35281 ft 535 kts 147°
2026-04-29 02:44 54.58841 -131.05335 35281 ft 527 kts 155°
2026-04-29 02:45 54.52571 -130.98807 35286 ft 533 kts 155°
2026-04-29 02:45 54.46291 -130.92294 35286 ft 528 kts 155°
2026-04-29 02:46 54.39963 -130.85762 35287 ft 531 kts 155°
2026-04-29 02:46 54.33633 -130.79250 35279 ft 532 kts 154°
2026-04-29 02:47 54.28307 -130.73787 35287 ft 533 kts 155°
2026-04-29 02:47 54.20926 -130.66244 35307 ft 533 kts 155°
2026-04-29 02:48 54.14530 -130.59735 35302 ft 536 kts 155°
2026-04-29 02:48 54.08124 -130.53238 35293 ft 534 kts 155°
2026-04-29 02:49 54.01777 -130.46828 35283 ft 538 kts 155°
2026-04-29 02:49 53.95367 -130.40372 35297 ft 534 kts 155°
2026-04-29 02:50 53.88972 -130.33955 35292 ft 537 kts 155°
2026-04-29 02:50 53.82542 -130.27528 35281 ft 535 kts 156°
2026-04-29 02:51 53.76165 -130.21178 35275 ft 538 kts 155°
2026-04-29 02:51 53.69730 -130.14789 35266 ft 535 kts 155°
2026-04-29 02:52 53.63294 -130.08426 35276 ft 539 kts 156°
2026-04-29 02:52 53.56881 -130.02106 35270 ft 538 kts 155°
2026-04-29 02:53 53.50416 -129.95758 35285 ft 540 kts 156°
2026-04-29 02:53 53.43960 -129.89442 35279 ft 539 kts 155°
2026-04-29 02:54 53.37484 -129.83130 35274 ft 543 kts 155°
2026-04-29 02:54 53.30950 -129.76781 35281 ft 541 kts 155°
2026-04-29 02:55 53.24443 -129.70479 35274 ft 541 kts 155°
2026-04-29 02:55 53.17889 -129.64156 35278 ft 546 kts 155°
2026-04-29 02:56 53.11350 -129.57867 35283 ft 544 kts 155°
2026-04-29 02:56 53.04816 -129.51610 35290 ft 546 kts 155°
2026-04-29 02:57 52.98277 -129.45329 35280 ft 548 kts 155°
2026-04-29 02:57 52.91721 -129.39023 35289 ft 546 kts 154°
2026-04-29 02:58 52.85126 -129.32703 35272 ft 545 kts 156°
2026-04-29 02:58 52.78563 -129.26436 35276 ft 548 kts 156°
2026-04-29 02:59 52.71987 -129.20178 35273 ft 547 kts 156°
2026-04-29 02:59 52.66517 -129.14992 35276 ft 547 kts 155°
2026-04-29 03:00 52.59926 -129.08762 35281 ft 549 kts 155°
2026-04-29 03:00 52.52238 -129.01520 35282 ft 544 kts 155°
2026-04-29 03:01 52.45683 -128.95372 35282 ft 546 kts 155°
2026-04-29 03:01 52.39048 -128.89169 35277 ft 547 kts 154°
2026-04-29 03:02 52.32476 -128.83046 35285 ft 548 kts 154°
2026-04-29 03:02 52.25858 -128.76901 35288 ft 550 kts 154°
2026-04-29 03:03 52.19510 -128.70090 35307 ft 551 kts 148°
2026-04-29 03:03 52.13277 -128.62863 35312 ft 554 kts 148°
2026-04-29 03:04 52.06956 -128.55569 35313 ft 554 kts 148°
2026-04-29 03:04 52.00731 -128.48416 35313 ft 552 kts 147°
2026-04-29 03:05 51.94427 -128.41203 35318 ft 555 kts 147°
2026-04-29 03:05 51.88135 -128.34032 35303 ft 553 kts 148°
2026-04-29 03:06 51.81856 -128.26901 35293 ft 556 kts 148°
2026-04-29 03:06 51.75532 -128.19746 35300 ft 556 kts 148°
2026-04-29 03:07 51.69198 -128.12604 35296 ft 556 kts 147°
2026-04-29 03:07 51.62757 -128.05368 35285 ft 558 kts 148°
2026-04-29 03:08 51.56427 -127.98282 35288 ft 559 kts 148°
2026-04-29 03:08 51.50053 -127.91171 35280 ft 561 kts 148°
2026-04-29 03:09 51.43641 -127.84041 35280 ft 562 kts 147°
2026-04-29 03:09 51.37231 -127.76940 35290 ft 562 kts 147°
2026-04-29 03:10 51.30806 -127.69845 35286 ft 560 kts 147°
2026-04-29 03:10 51.24420 -127.62820 35282 ft 564 kts 147°
2026-04-29 03:11 51.17981 -127.55760 35272 ft 564 kts 147°
2026-04-29 03:11 51.11540 -127.48721 35274 ft 560 kts 147°
2026-04-29 03:12 51.05053 -127.41657 35284 ft 564 kts 147°
2026-04-29 03:12 50.99659 -127.35802 35288 ft 562 kts 146°
2026-04-29 03:13 50.92135 -127.27662 35278 ft 563 kts 148°
2026-04-29 03:13 50.85684 -127.20710 35263 ft 562 kts 147°
2026-04-29 03:14 50.79220 -127.13766 35259 ft 562 kts 148°
2026-04-29 03:14 50.72752 -127.06844 35256 ft 564 kts 147°
2026-04-29 03:15 50.66242 -126.99899 35252 ft 565 kts 147°
2026-04-29 03:15 50.59759 -126.93005 35248 ft 563 kts 147°
2026-04-29 03:16 50.53299 -126.86159 35242 ft 563 kts 147°
2026-04-29 03:16 50.46812 -126.79308 35220 ft 563 kts 147°
2026-04-29 03:17 50.40322 -126.72479 35218 ft 565 kts 146°
2026-04-29 03:17 50.33819 -126.65657 35224 ft 562 kts 146°
2026-04-29 03:18 50.27271 -126.58810 35216 ft 563 kts 147°
2026-04-29 03:18 50.20804 -126.52071 35202 ft 562 kts 146°
2026-04-29 03:19 50.15353 -126.46410 35193 ft 562 kts 146°
2026-04-29 03:19 50.07820 -126.38610 35193 ft 561 kts 146°
2026-04-29 03:20 50.02404 -126.33021 35185 ft 561 kts 147°
2026-04-29 03:20 49.95951 -126.26381 35193 ft 559 kts 147°
2026-04-29 03:21 49.88390 -126.18630 35196 ft 559 kts 146°
2026-04-29 03:21 49.81918 -126.12018 35204 ft 559 kts 147°
2026-04-29 03:22 49.76530 -126.06530 35220 ft 561 kts 146°
2026-04-29 03:22 49.68929 -125.98813 35233 ft 559 kts 147°
2026-04-29 03:23 49.63509 -125.93329 35235 ft 561 kts 147°
2026-04-29 03:23 49.55938 -125.85691 35237 ft 560 kts 147°
2026-04-29 03:24 49.49429 -125.79149 35244 ft 561 kts 146°
2026-04-29 03:24 49.42918 -125.72625 35252 ft 561 kts 147°
2026-04-29 03:25 49.36381 -125.66097 35243 ft 559 kts 146°
2026-04-29 03:25 49.30924 -125.60664 35241 ft 562 kts 146°
2026-04-29 03:26 49.24420 -125.54205 35248 ft 562 kts 146°
2026-04-29 03:26 49.17874 -125.47728 35243 ft 560 kts 147°
2026-04-29 03:27 49.11339 -125.41281 35237 ft 560 kts 146°
2026-04-29 03:27 49.03726 -125.33796 35242 ft 559 kts 147°
2026-04-29 03:28 48.98307 -125.28485 35248 ft 559 kts 147°
2026-04-29 03:28 48.91746 -125.22074 35260 ft 560 kts 147°
2026-04-29 03:29 48.84158 -125.14685 35240 ft 557 kts 147°
2026-04-29 03:29 48.78722 -125.09407 35231 ft 558 kts 147°
2026-04-29 03:30 48.72177 -125.03072 35220 ft 557 kts 147°
2026-04-29 03:30 48.64554 -124.95717 35240 ft 557 kts 147°
2026-04-29 03:31 48.54826 -124.86372 35251 ft 557 kts 147°
2026-04-29 03:31 48.49342 -124.81122 35267 ft 557 kts 147°
2026-04-29 03:32 48.41721 -124.73849 35260 ft 560 kts 147°
2026-04-29 03:32 48.36270 -124.68663 35265 ft 557 kts 147°
2026-04-29 03:33 48.29547 -124.63007 35258 ft 557 kts 159°
2026-04-29 03:33 48.20963 -124.58499 35260 ft 556 kts 162°
2026-04-29 03:34 48.14841 -124.55465 35255 ft 557 kts 163°
2026-04-29 03:34 48.06266 -124.51268 35262 ft 559 kts 163°
2026-04-29 03:35 48.00134 -124.48292 35282 ft 561 kts 163°
2026-04-29 03:35 47.92746 -124.44727 35281 ft 559 kts 163°
2026-04-29 03:36 47.85352 -124.41177 35261 ft 559 kts 163°
2026-04-29 03:36 47.77899 -124.37614 35257 ft 562 kts 163°
2026-04-29 03:37 47.70512 -124.34094 35251 ft 559 kts 163°
2026-04-29 03:37 47.63064 -124.30557 35241 ft 560 kts 164°
2026-04-29 03:38 47.55641 -124.27044 35241 ft 561 kts 164°
2026-04-29 03:38 47.46988 -124.23074 35234 ft 558 kts 169°
2026-04-29 03:39 47.40643 -124.21110 35242 ft 560 kts 171°
2026-04-29 03:39 47.33000 -124.18869 35244 ft 557 kts 172°
2026-04-29 03:40 47.24093 -124.16264 35249 ft 556 kts 171°
2026-04-29 03:40 47.17769 -124.14418 35254 ft 559 kts 172°
2026-04-29 03:41 47.10145 -124.12197 35262 ft 559 kts 171°
2026-04-29 03:41 47.02572 -124.09997 35265 ft 558 kts 171°
2026-04-29 03:42 46.94956 -124.07790 35274 ft 559 kts 171°
2026-04-29 03:42 46.87302 -124.05579 35265 ft 557 kts 171°
2026-04-29 03:43 46.79685 -124.03384 35265 ft 558 kts 171°
2026-04-29 03:43 46.72049 -124.01190 35267 ft 557 kts 171°
2026-04-29 03:44 46.64406 -123.99000 35269 ft 558 kts 171°
2026-04-29 03:44 46.56825 -123.96835 35270 ft 557 kts 171°
2026-04-29 03:45 46.49181 -123.94658 35267 ft 560 kts 171°
2026-04-29 03:45 46.41594 -123.92503 35267 ft 559 kts 171°
2026-04-29 03:46 46.33938 -123.90335 35272 ft 559 kts 171°
2026-04-29 03:46 46.26377 -123.88199 35283 ft 558 kts 171°
2026-04-29 03:47 46.18768 -123.86056 35283 ft 558 kts 171°
2026-04-29 03:47 46.11175 -123.83923 35285 ft 556 kts 171°
2026-04-29 03:48 46.03552 -123.81789 35276 ft 558 kts 171°
2026-04-29 03:48 45.95958 -123.79668 35262 ft 557 kts 171°
2026-04-29 03:49 45.88334 -123.77544 35243 ft 558 kts 171°
2026-04-29 03:49 45.80717 -123.75429 35233 ft 556 kts 170°
2026-04-29 03:50 45.73111 -123.73323 35229 ft 556 kts 171°
2026-04-29 03:50 45.65494 -123.71220 35230 ft 559 kts 171°
2026-04-29 03:51 45.57859 -123.69117 35236 ft 558 kts 171°
2026-04-29 03:51 45.50257 -123.67029 35244 ft 558 kts 171°
2026-04-29 03:52 45.42647 -123.64945 35254 ft 557 kts 171°
2026-04-29 03:52 45.35055 -123.62871 35248 ft 556 kts 171°
2026-04-29 03:53 45.27441 -123.60797 35240 ft 559 kts 171°
2026-04-29 03:53 45.19823 -123.58727 35231 ft 558 kts 171°
2026-04-29 03:54 45.12211 -123.56665 35237 ft 557 kts 171°
2026-04-29 03:54 45.04601 -123.54610 35235 ft 559 kts 171°
2026-04-29 03:55 44.96978 -123.52556 35238 ft 560 kts 171°
2026-04-29 03:55 44.89387 -123.50515 35244 ft 558 kts 171°
2026-04-29 03:56 44.81800 -123.48482 35224 ft 556 kts 171°
2026-04-29 03:56 44.74114 -123.46428 35230 ft 559 kts 171°
2026-04-29 03:57 44.66548 -123.44411 35229 ft 557 kts 171°
2026-04-29 03:57 44.58881 -123.42373 35232 ft 557 kts 170°
2026-04-29 03:58 44.51179 -123.40331 35233 ft 557 kts 171°
2026-04-29 03:58 44.43574 -123.38320 35244 ft 559 kts 171°
2026-04-29 03:59 44.35884 -123.36292 35239 ft 558 kts 171°
2026-04-29 03:59 44.28295 -123.34296 35234 ft 556 kts 172°
2026-04-29 04:00 44.20687 -123.32300 35232 ft 558 kts 171°
2026-04-29 04:00 44.13092 -123.30313 35231 ft 558 kts 171°
2026-04-29 04:01 44.05473 -123.28325 35234 ft 557 kts 171°
2026-04-29 04:01 43.97835 -123.26337 35230 ft 556 kts 171°
2026-04-29 04:02 43.88946 -123.24030 35217 ft 557 kts 171°
2026-04-29 04:02 43.82505 -123.22363 35204 ft 558 kts 172°
2026-04-29 04:03 43.74815 -123.20378 35203 ft 557 kts 171°
2026-04-29 04:03 43.67181 -123.18412 35206 ft 559 kts 171°
2026-04-29 04:04 43.59585 -123.16460 35201 ft 558 kts 171°
2026-04-29 04:04 43.51962 -123.14507 35199 ft 558 kts 171°
2026-04-29 04:05 43.44348 -123.12562 35189 ft 558 kts 171°
2026-04-29 04:05 43.36731 -123.10620 35190 ft 559 kts 171°
2026-04-29 04:06 43.29080 -123.08675 35193 ft 558 kts 171°
2026-04-29 04:06 43.21442 -123.06738 35194 ft 559 kts 171°
2026-04-29 04:07 43.13791 -123.04803 35190 ft 561 kts 171°
2026-04-29 04:07 43.06141 -123.02873 35189 ft 558 kts 170°
2026-04-29 04:08 42.98519 -123.00954 35190 ft 558 kts 171°
2026-04-29 04:08 42.90867 -122.99034 35179 ft 559 kts 171°
2026-04-29 04:09 42.83183 -122.97110 35167 ft 560 kts 171°
2026-04-29 04:09 42.75514 -122.95194 35171 ft 560 kts 171°
2026-04-29 04:10 42.67881 -122.93293 35172 ft 559 kts 170°
2026-04-29 04:10 42.60205 -122.91386 35178 ft 560 kts 171°
2026-04-29 04:11 42.52592 -122.89499 35366 ft 559 kts 170°
2026-04-29 04:11 42.48723 -122.88625 35186 ft 558 kts 175°
2026-04-29 04:11 42.44831 -122.88302 35188 ft 553 kts 180°
2026-04-29 04:12 42.37094 -122.88061 35190 ft 557 kts 181°
2026-04-29 04:12 42.29327 -122.87838 35190 ft 556 kts 181°
2026-04-29 04:13 42.21574 -122.87617 35193 ft 557 kts 181°
2026-04-29 04:13 42.13818 -122.87395 35196 ft 556 kts 181°
2026-04-29 04:14 42.04788 -122.87138 35196 ft 556 kts 181°
2026-04-29 04:14 41.98374 -122.86957 35199 ft 556 kts 181°
2026-04-29 04:15 41.90616 -122.86737 35204 ft 557 kts 181°
2026-04-29 04:15 41.82818 -122.86517 35180 ft 557 kts 181°
2026-04-29 04:16 41.75028 -122.86298 35182 ft 557 kts 181°
2026-04-29 04:16 41.67282 -122.86080 35177 ft 555 kts 180°
2026-04-29 04:17 41.59554 -122.85863 35181 ft 556 kts 181°
2026-04-29 04:17 41.51792 -122.85646 35188 ft 555 kts 181°
2026-04-29 04:18 41.44033 -122.85429 35194 ft 557 kts 181°
2026-04-29 04:18 41.36330 -122.85215 35202 ft 558 kts 180°
2026-04-29 04:19 41.28574 -122.84893 35201 ft 557 kts 179°
2026-04-29 04:19 41.20776 -122.84405 35204 ft 556 kts 179°
2026-04-29 04:20 41.13059 -122.83930 35204 ft 556 kts 179°
2026-04-29 04:20 41.05317 -122.83461 35203 ft 558 kts 178°
2026-04-29 04:21 40.97604 -122.82997 35198 ft 556 kts 179°
2026-04-29 04:21 40.89857 -122.82535 35196 ft 556 kts 179°
2026-04-29 04:22 40.82160 -122.82078 35171 ft 556 kts 179°
2026-04-29 04:22 40.74412 -122.81620 35163 ft 555 kts 178°
2026-04-29 04:23 40.66696 -122.81165 35169 ft 554 kts 178°
2026-04-29 04:23 40.59033 -122.80714 35171 ft 554 kts 178°
2026-04-29 04:24 40.51327 -122.80262 35175 ft 553 kts 179°
2026-04-29 04:24 40.43647 -122.79813 35176 ft 553 kts 178°
2026-04-29 04:25 40.35959 -122.79365 35180 ft 553 kts 178°
2026-04-29 04:25 40.28283 -122.78918 35176 ft 552 kts 178°
2026-04-29 04:26 40.20637 -122.78473 35182 ft 550 kts 178°
2026-04-29 04:26 40.12942 -122.78027 35184 ft 550 kts 178°
2026-04-29 04:27 40.05327 -122.77586 35192 ft 551 kts 178°
2026-04-29 04:27 39.97646 -122.77142 35193 ft 550 kts 178°
2026-04-29 04:28 39.90025 -122.76704 35156 ft 544 kts 178°
2026-04-29 04:28 39.86260 -122.76486 34577 ft 543 kts 178°
2026-04-29 04:28 39.82456 -122.76268 33635 ft 548 kts 177°
2026-04-29 04:29 39.78619 -122.76047 32776 ft 551 kts 178°
2026-04-29 04:29 39.74775 -122.75827 31907 ft 553 kts 177°
2026-04-29 04:29 39.70943 -122.75607 31033 ft 555 kts 177°
2026-04-29 04:29 39.67084 -122.75387 30391 ft 551 kts 177°
2026-04-29 04:30 39.63259 -122.75168 29941 ft 544 kts 177°
2026-04-29 04:30 39.59469 -122.74952 29431 ft 538 kts 177°
2026-04-29 04:30 39.52120 -122.74380 28347 ft 529 kts 171°
2026-04-29 04:31 39.48547 -122.73389 27805 ft 522 kts 162°
2026-04-29 04:31 39.45134 -122.71842 27242 ft 516 kts 156°
2026-04-29 04:31 39.41800 -122.70161 26672 ft 512 kts 156°
2026-04-29 04:31 39.38487 -122.68476 26111 ft 508 kts 156°
2026-04-29 04:32 39.35226 -122.66816 25539 ft 504 kts 157°
2026-04-29 04:32 39.31973 -122.65159 24965 ft 500 kts 157°
2026-04-29 04:32 39.28778 -122.63532 24468 ft 493 kts 157°
2026-04-29 04:32 39.25660 -122.61944 24371 ft 478 kts 156°
2026-04-29 04:33 39.22591 -122.60385 24255 ft 464 kts 158°
2026-04-29 04:33 39.19556 -122.59219 24088 ft 452 kts 168°
2026-04-29 04:33 39.16449 -122.58613 23653 ft 447 kts 173°
2026-04-29 04:33 39.13381 -122.58163 23125 ft 444 kts 173°
2026-04-29 04:34 39.10320 -122.57725 22637 ft 441 kts 173°
2026-04-29 04:34 39.07297 -122.57296 22073 ft 434 kts 173°
2026-04-29 04:34 39.04335 -122.56876 21769 ft 422 kts 174°
2026-04-29 04:34 39.01450 -122.56338 21312 ft 419 kts 168°
2026-04-29 04:35 38.98605 -122.55592 20846 ft 417 kts 168°
2026-04-29 04:35 38.95768 -122.54845 20397 ft 414 kts 168°
2026-04-29 04:35 38.92967 -122.54118 19963 ft 411 kts 168°
2026-04-29 04:35 38.90162 -122.53397 19524 ft 408 kts 168°
2026-04-29 04:36 38.87399 -122.52692 19088 ft 405 kts 169°
2026-04-29 04:36 38.84645 -122.51995 18657 ft 402 kts 168°
2026-04-29 04:36 38.81909 -122.51305 18234 ft 398 kts 169°
2026-04-29 04:36 38.79218 -122.50629 17820 ft 395 kts 169°
2026-04-29 04:37 38.76530 -122.49957 17363 ft 393 kts 169°
2026-04-29 04:37 38.73838 -122.49284 16869 ft 392 kts 169°
2026-04-29 04:37 38.71162 -122.48616 16427 ft 389 kts 169°
2026-04-29 04:37 38.68545 -122.47965 16068 ft 379 kts 169°
2026-04-29 04:38 38.65959 -122.47420 15750 ft 373 kts 173°
2026-04-29 04:38 38.63386 -122.47054 15262 ft 373 kts 174°
2026-04-29 04:38 38.60830 -122.46696 14819 ft 371 kts 174°
2026-04-29 04:38 38.58257 -122.46324 14402 ft 368 kts 173°
2026-04-29 04:39 38.55729 -122.45951 14004 ft 365 kts 173°
2026-04-29 04:39 38.53235 -122.45579 13617 ft 362 kts 173°
2026-04-29 04:39 38.50738 -122.45203 13233 ft 359 kts 173°
2026-04-29 04:39 38.48254 -122.44829 12844 ft 356 kts 173°
2026-04-29 04:40 38.45805 -122.44458 12454 ft 353 kts 173°
2026-04-29 04:40 38.43388 -122.44092 12079 ft 350 kts 173°
2026-04-29 04:40 38.40976 -122.43726 11705 ft 347 kts 172°
2026-04-29 04:40 38.38581 -122.43363 11330 ft 344 kts 172°
2026-04-29 04:41 38.36219 -122.43005 10961 ft 341 kts 172°
2026-04-29 04:41 38.33899 -122.42654 10601 ft 338 kts 172°
2026-04-29 04:41 38.31546 -122.42297 10218 ft 334 kts 172°
2026-04-29 04:41 38.29274 -122.41954 9832 ft 323 kts 172°
2026-04-29 04:42 38.27068 -122.41620 9476 ft 319 kts 172°
2026-04-29 04:42 38.24908 -122.41293 9202 ft 305 kts 172°
2026-04-29 04:42 38.22842 -122.40980 9068 ft 295 kts 172°
2026-04-29 04:42 38.20819 -122.40668 8705 ft 293 kts 171°
2026-04-29 04:43 38.18812 -122.40359 8465 ft 285 kts 171°
2026-04-29 04:43 38.16852 -122.40059 8293 ft 280 kts 171°
2026-04-29 04:43 38.14917 -122.39761 8121 ft 278 kts 171°
2026-04-29 04:43 38.13009 -122.39469 7947 ft 278 kts 171°
2026-04-29 04:44 38.11084 -122.39174 7774 ft 277 kts 171°
2026-04-29 04:44 38.09184 -122.38883 7604 ft 276 kts 171°
2026-04-29 04:44 38.07281 -122.38593 7431 ft 275 kts 171°
2026-04-29 04:44 38.05366 -122.38300 7262 ft 277 kts 171°
2026-04-29 04:45 38.03455 -122.38006 7085 ft 275 kts 169°
2026-04-29 04:45 38.01669 -122.37281 6906 ft 269 kts 147°
2026-04-29 04:45 38.00097 -122.35963 6778 ft 268 kts 140°
2026-04-29 04:45 37.98609 -122.34553 6678 ft 267 kts 140°
2026-04-29 04:46 37.97129 -122.33133 6545 ft 266 kts 140°
2026-04-29 04:46 37.95663 -122.31731 6424 ft 264 kts 140°
2026-04-29 04:46 37.94191 -122.30325 6298 ft 265 kts 140°
2026-04-29 04:46 37.92721 -122.28923 6167 ft 263 kts 140°
2026-04-29 04:47 37.91254 -122.27524 6052 ft 263 kts 140°
2026-04-29 04:47 37.89794 -122.26133 5927 ft 262 kts 140°
2026-04-29 04:47 37.88334 -122.24743 5806 ft 262 kts 140°
2026-04-29 04:47 37.86876 -122.23355 5683 ft 262 kts 141°
2026-04-29 04:48 37.85428 -122.21977 5559 ft 262 kts 141°
2026-04-29 04:48 37.83977 -122.20598 5434 ft 262 kts 140°
2026-04-29 04:48 37.82514 -122.19208 5308 ft 260 kts 141°
2026-04-29 04:48 37.81074 -122.17840 5186 ft 260 kts 141°
2026-04-29 04:49 37.79614 -122.16454 5061 ft 261 kts 141°
2026-04-29 04:49 37.78268 -122.14964 4975 ft 256 kts 129°
2026-04-29 04:49 37.77139 -122.13213 4972 ft 257 kts 126°
2026-04-29 04:49 37.76037 -122.11417 4960 ft 254 kts 125°
2026-04-29 04:50 37.74972 -122.09687 4923 ft 242 kts 125°
2026-04-29 04:50 37.73964 -122.08054 4888 ft 229 kts 125°
2026-04-29 04:50 37.73011 -122.06512 4745 ft 223 kts 125°
2026-04-29 04:50 37.72053 -122.04952 4439 ft 223 kts 126°
2026-04-29 04:51 37.71099 -122.03398 4139 ft 224 kts 126°
2026-04-29 04:51 37.70146 -122.01848 3862 ft 223 kts 126°
2026-04-29 04:51 37.69201 -122.00304 3584 ft 223 kts 124°
2026-04-29 04:51 37.68317 -121.98684 3389 ft 218 kts 122°
2026-04-29 04:52 37.67459 -121.97094 3370 ft 224 kts 123°
2026-04-29 04:52 37.66567 -121.95469 3363 ft 223 kts 124°
2026-04-29 04:52 37.65433 -121.94175 3347 ft 224 kts 156°
2026-04-29 04:52 37.63907 -121.93847 3353 ft 226 kts 189°
2026-04-29 04:53 37.62456 -121.94619 3350 ft 225 kts 219°
2026-04-29 04:53 37.61255 -121.95891 3364 ft 225 kts 222°
2026-04-29 04:53 37.60102 -121.97183 3371 ft 223 kts 223°
2026-04-29 04:53 37.58937 -121.98519 3362 ft 223 kts 230°
2026-04-29 04:54 37.58254 -122.00199 3357 ft 219 kts 263°
2026-04-29 04:54 37.58329 -122.02095 3372 ft 219 kts 279°
2026-04-29 04:54 37.58657 -122.03960 3369 ft 212 kts 295°
2026-04-29 04:54 37.59399 -122.05507 3243 ft 203 kts 308°
2026-04-29 04:55 37.60288 -122.06875 2980 ft 199 kts 312°
2026-04-29 04:55 37.61166 -122.08136 2686 ft 188 kts 313°
2026-04-29 04:55 37.62008 -122.09335 2413 ft 180 kts 311°
2026-04-29 04:55 37.62814 -122.10523 2182 ft 175 kts 310°
2026-04-29 04:56 37.63598 -122.11697 1954 ft 175 kts 310°
2026-04-29 04:56 37.64383 -122.12872 1755 ft 174 kts 310°
2026-04-29 04:56 37.65182 -122.14017 1565 ft 171 kts 313°
2026-04-29 04:56 37.65925 -122.15099 1389 ft 157 kts 309°
2026-04-29 04:57 37.66577 -122.16151 1167 ft 146 kts 309°
2026-04-29 04:57 37.67225 -122.17095 981 ft 142 kts 311°
2026-04-29 04:57 37.67864 -122.18036 775 ft 141 kts 309°
2026-04-29 04:57 37.68501 -122.18988 551 ft 142 kts 309°
2026-04-29 04:58 37.69129 -122.19928 362 ft 140 kts 309°
2026-04-29 04:58 37.69761 -122.20853 190 ft 138 kts 308°
2026-04-29 04:58 37.70379 -122.21773 24 ft 129 kts 308°
2026-04-29 04:58 37.70873 -122.22516 19 ft 88 kts 310°
2026-04-29 04:59 37.71182 -122.22965 19 ft 54 kts 315°
2026-04-29 04:59 37.71424 -122.23141 18 ft 22 kts 349°
2026-04-29 04:59 37.71456 -122.23146 18 ft 0 kts 356°
2026-04-29 04:59 37.71461 -122.23146 18 ft 2 kts
2026-04-29 05:00 37.71486 -122.23133 19 ft 6 kts 47°
2026-04-29 05:00 37.71480 -122.23053 19 ft 12 kts 120°
2026-04-29 05:00 37.71420 -122.22957 19 ft 14 kts 131°
2026-04-29 05:00 37.71357 -122.22865 19 ft 13 kts 130°
2026-04-29 05:01 37.71295 -122.22772 18 ft 13 kts 129°
2026-04-29 05:01 37.71236 -122.22680 19 ft 13 kts 129°
2026-04-29 05:01 37.71176 -122.22588 18 ft 13 kts 129°
2026-04-29 05:01 37.71116 -122.22494 19 ft 13 kts 122°
2026-04-29 05:02 37.71134 -122.22398 19 ft 11 kts 38°
2026-04-29 05:02 37.71200 -122.22335 18 ft 12 kts 39°
2026-04-29 05:02 37.71277 -122.22249 18 ft 16 kts 41°
2026-04-29 05:02 37.71361 -122.22150 18 ft 16 kts 47°
2026-04-29 05:03 37.71431 -122.22050 19 ft 12 kts 49°
2026-04-29 05:03 37.71476 -122.21995 19 ft 5 kts 27°
2026-04-29 05:03 37.71509 -122.21990 19 ft 6 kts 351°
2026-04-29 05:03 37.71559 -122.22028 19 ft 8 kts 321°
2026-04-29 05:04 37.71605 -122.22077 18 ft 8 kts 319°
2026-04-29 05:04 37.71646 -122.22122 19 ft 4 kts 319°
2026-04-29 05:04 37.71649 -122.22125 19 ft 0 kts 319°